Location: Amsterdam
(30.7274°N, 84.4357°W)
Time: 20:50:00
(UTC+00:00)

Injun/Solrad 3 - Pass Details

Date: 25 February 2026
Orbit: 872 x 984 km, 66.8° (Epoch: 8 March)

Event Time Altitude Azimuth Distance (km) Brightness Sun altitude
Rises 00:34:52 0° 337° (NNW) 3,604 11.3 -14.1°
Reaches altitude 10° 00:37:23 10° 339° (NNW) 2,673 10.5 -14.6°
Maximum altitude 00:43:39 76° 65° (ENE) 997 7.9 -16.0°
Drops below altitude 10° 00:50:01 10° 151° (SSE) 2,719 10.1 -17.3°
Sets 00:52:36 0° 152° (SSE) 3,670 10.7 -17.9°
